TimeCDT,TemperatureF,Dew PointF,Humidity,Sea Level PressureIn,VisibilityMPH,Wind Direction,Wind SpeedMPH,Gust SpeedMPH,PrecipitationIn,Events,Conditions,WindDirDegrees,DateUTC
12:15 AM,53.6,53.6,100,29.94,10.0,ENE,3.5,-,N/A,,Clear,70,2012-10-03 05:15:00
12:35 AM,53.6,51.8,94,29.95,10.0,Calm,Calm,-,N/A,,Clear,0,2012-10-03 05:35:00
12:55 AM,53.6,51.8,94,29.95,10.0,Calm,Calm,-,N/A,,Clear,0,2012-10-03 05:55:00
1:15 AM,53.6,51.8,94,29.95,10.0,Calm,Calm,-,N/A,,Clear,0,2012-10-03 06:15:00
1:35 AM,53.6,51.8,94,29.95,10.0,Calm,Calm,-,N/A,,Clear,0,2012-10-03 06:35:00
1:55 AM,51.8,51.8,100,29.95,10.0,Calm,Calm,-,N/A,,Clear,0,2012-10-03 06:55:00
2:15 AM,51.8,51.8,100,29.96,10.0,ENE,3.5,-,N/A,,Clear,70,2012-10-03 07:15:00
2:35 AM,51.8,50.0,94,29.96,10.0,ENE,3.5,-,N/A,,Clear,70,2012-10-03 07:35:00
2:55 AM,51.8,50.0,94,29.95,10.0,ENE,4.6,-,N/A,,Clear,70,2012-10-03 07:55:00
3:15 AM,51.8,50.0,94,29.95,10.0,Calm,Calm,-,N/A,,Clear,0,2012-10-03 08:15:00
3:35 AM,51.8,50.0,94,29.95,10.0,Calm,Calm,-,N/A,,Clear,0,2012-10-03 08:35:00
3:55 AM,51.8,50.0,94,29.95,10.0,Calm,Calm,-,N/A,,Clear,0,2012-10-03 08:55:00
4:15 AM,51.8,50.0,94,29.95,10.0,Calm,Calm,-,N/A,,Clear,0,2012-10-03 09:15:00
4:35 AM,51.8,50.0,94,29.95,10.0,Calm,Calm,-,N/A,,Clear,0,2012-10-03 09:35:00
4:55 AM,51.8,50.0,94,29.96,10.0,Calm,Calm,-,N/A,,Clear,0,2012-10-03 09:55:00
5:15 AM,50.0,50.0,100,29.97,10.0,Calm,Calm,-,N/A,,Clear,0,2012-10-03 10:15:00
5:35 AM,50.0,50.0,100,29.97,10.0,Calm,Calm,-,N/A,,Clear,0,2012-10-03 10:35:00
5:55 AM,50.0,50.0,100,29.98,10.0,Calm,Calm,-,N/A,,Clear,0,2012-10-03 10:55:00
6:15 AM,50.0,50.0,100,29.98,10.0,Calm,Calm,-,N/A,,Clear,0,2012-10-03 11:15:00
6:35 AM,50.0,50.0,100,29.99,10.0,Calm,Calm,-,N/A,,Clear,0,2012-10-03 11:35:00
6:55 AM,50.0,50.0,100,29.99,10.0,Calm,Calm,-,N/A,,Clear,0,2012-10-03 11:55:00
7:15 AM,50.0,50.0,100,29.99,10.0,Calm,Calm,-,N/A,,Clear,0,2012-10-03 12:15:00
7:35 AM,51.8,50.0,94,30.00,10.0,Calm,Calm,-,N/A,,Clear,0,2012-10-03 12:35:00
7:55 AM,51.8,50.0,94,30.00,10.0,ENE,3.5,-,N/A,,Clear,60,2012-10-03 12:55:00
8:15 AM,51.8,50.0,94,30.00,10.0,NE,3.5,-,N/A,,Clear,50,2012-10-03 13:15:00
8:35 AM,53.6,50.0,88,30.00,10.0,Calm,Calm,-,N/A,,Clear,0,2012-10-03 13:35:00
8:55 AM,55.4,51.8,88,30.01,10.0,ENE,4.6,-,N/A,,Scattered Clouds,70,2012-10-03 13:55:00
9:15 AM,59.0,51.8,77,30.02,10.0,East,5.8,-,N/A,,Scattered Clouds,80,2012-10-03 14:15:00
9:35 AM,59.0,51.8,77,30.02,10.0,East,4.6,-,N/A,,Scattered Clouds,80,2012-10-03 14:35:00
9:55 AM,60.8,53.6,77,30.03,10.0,ENE,3.5,-,N/A,,Scattered Clouds,70,2012-10-03 14:55:00
10:15 AM,64.4,53.6,68,30.03,10.0,East,3.5,-,N/A,,Scattered Clouds,80,2012-10-03 15:15:00
10:35 AM,68.0,53.6,60,30.03,10.0,Calm,Calm,-,N/A,,Scattered Clouds,0,2012-10-03 15:35:00
10:55 AM,69.8,53.6,56,30.03,10.0,Calm,Calm,-,N/A,,Scattered Clouds,0,2012-10-03 15:55:00
11:15 AM,71.6,51.8,50,30.03,10.0,ESE,5.8,-,N/A,,Scattered Clouds,120,2012-10-03 16:15:00
11:35 AM,71.6,50.0,46,30.03,10.0,SSE,3.5,-,N/A,,Scattered Clouds,150,2012-10-03 16:35:00
11:55 AM,73.4,51.8,47,30.03,10.0,ESE,3.5,-,N/A,,Clear,120,2012-10-03 16:55:00
12:15 PM,73.4,51.8,47,30.02,10.0,SSE,3.5,-,N/A,,Clear,160,2012-10-03 17:15:00
12:35 PM,77.0,51.8,41,30.01,10.0,South,6.9,-,N/A,,Clear,190,2012-10-03 17:35:00
12:55 PM,77.0,53.6,44,30.01,10.0,South,8.1,-,N/A,,Clear,180,2012-10-03 17:55:00
1:15 PM,77.0,53.6,44,30.00,10.0,SSE,6.9,-,N/A,,Clear,160,2012-10-03 18:15:00
1:35 PM,78.8,53.6,42,29.98,10.0,South,5.8,-,N/A,,Clear,170,2012-10-03 18:35:00
1:55 PM,78.8,53.6,42,29.98,10.0,South,6.9,-,N/A,,Clear,180,2012-10-03 18:55:00
2:15 PM,80.6,51.8,37,29.97,10.0,SSW,9.2,-,N/A,,Clear,210,2012-10-03 19:15:00
2:35 PM,80.6,51.8,37,29.97,10.0,SW,11.5,-,N/A,,Clear,220,2012-10-03 19:35:00
2:55 PM,80.6,51.8,37,29.96,10.0,SSW,10.4,-,N/A,,Clear,210,2012-10-03 19:55:00
3:15 PM,80.6,51.8,37,29.96,10.0,WSW,10.4,-,N/A,,Clear,240,2012-10-03 20:15:00
3:35 PM,80.6,51.8,37,29.96,10.0,WSW,9.2,-,N/A,,Clear,240,2012-10-03 20:35:00
3:55 PM,80.6,50.0,34,29.95,10.0,SW,10.4,16.1,N/A,,Clear,220,2012-10-03 20:55:00
4:15 PM,80.6,50.0,34,29.95,10.0,South,8.1,-,N/A,,Scattered Clouds,170,2012-10-03 21:15:00
4:35 PM,80.6,51.8,37,29.95,10.0,South,6.9,-,N/A,,Scattered Clouds,190,2012-10-03 21:35:00
4:55 PM,80.6,51.8,37,29.96,10.0,SSW,6.9,-,N/A,,Clear,210,2012-10-03 21:55:00
5:15 PM,80.6,51.8,37,29.96,10.0,South,9.2,-,N/A,,Scattered Clouds,180,2012-10-03 22:15:00
5:35 PM,78.8,51.8,39,29.96,10.0,South,10.4,-,N/A,,Scattered Clouds,170,2012-10-03 22:35:00
5:55 PM,78.8,51.8,39,29.96,10.0,South,8.1,-,N/A,,Clear,180,2012-10-03 22:55:00
6:15 PM,77.0,51.8,41,29.97,10.0,South,5.8,-,N/A,,Clear,180,2012-10-03 23:15:00
6:35 PM,77.0,53.6,44,29.97,10.0,South,8.1,-,N/A,,Clear,170,2012-10-03 23:35:00
6:55 PM,73.4,53.6,50,29.97,10.0,SSE,4.6,-,N/A,,Clear,160,2012-10-03 23:55:00
7:15 PM,71.6,53.6,53,29.97,10.0,SSE,4.6,-,N/A,,Clear,150,2012-10-04 00:15:00
7:35 PM,71.6,53.6,53,29.98,10.0,SSE,4.6,-,N/A,,Clear,150,2012-10-04 00:35:00
7:55 PM,69.8,53.6,56,29.99,10.0,SSE,4.6,-,N/A,,Clear,150,2012-10-04 00:55:00
8:15 PM,69.8,53.6,56,29.99,10.0,SSE,5.8,-,N/A,,Clear,150,2012-10-04 01:15:00
8:35 PM,69.8,53.6,56,30.00,10.0,SSE,5.8,-,N/A,,Clear,150,2012-10-04 01:35:00
8:55 PM,69.8,53.6,56,30.01,10.0,SE,4.6,-,N/A,,Clear,140,2012-10-04 01:55:00
9:15 PM,68.0,53.6,60,30.01,10.0,SE,4.6,-,N/A,,Clear,140,2012-10-04 02:15:00
9:35 PM,68.0,53.6,60,30.02,10.0,SSE,4.6,-,N/A,,Clear,150,2012-10-04 02:35:00
10:15 PM,68.0,53.6,60,30.04,10.0,SE,4.6,-,N/A,,Clear,140,2012-10-04 03:15:00
10:35 PM,68.0,53.6,60,30.05,10.0,SE,3.5,-,N/A,,Clear,140,2012-10-04 03:35:00
10:55 PM,66.2,53.6,64,30.05,10.0,SE,3.5,-,N/A,,Clear,130,2012-10-04 03:55:00
11:15 PM,64.4,53.6,68,30.05,10.0,Calm,Calm,-,N/A,,Clear,0,2012-10-04 04:15:00
11:35 PM,64.4,53.6,68,30.05,10.0,Calm,Calm,-,N/A,,Clear,0,2012-10-04 04:35:00
11:55 PM,64.4,53.6,68,30.05,10.0,East,3.5,-,N/A,,Clear,90,2012-10-04 04:55:00